Content
SEND FEEDBACK

Daily
Averages
Monthly
Summary
United States of America

UPI, GUAM


Home > North America > United States > Guam
Elevation: 16 meters     Latitude: 13 34N     Longitude: 144 55E

WEATHER
 
SELECT A DAY
Number of Records: 215,568;   Date Range: 1/1/95 - 12/19/14
 
SHARE

PRINT THIS DATA

[ ← Previous Day ]
WEATHER ALMANAC - 18 JUNE, 2014
[ Next Day → ]
[ °F ]   °C
Weather ElementAverageHighLow
Temperature29.3 °C31.1 °C (10:54 am)26.1 °C (4:54 am)
Dewpoint25.1 °C26.1 °C (6:54 am)24 °C (10:01 am)
Humidity78 %94 % (1:54 am)66 % (10:01 am)
Barometer1009.8 hPa1011.9 hPa (8:27 am)1007.5 hPa (3:54 pm)
Wind Speed7.9 km/h13 km/h (10:54 am)
Weather ElementAverage
Visibility16.1 km
Wind DirectionENE (77.3 °)

Weather ElementTotal
Precipitation---
Cooling Degree Days10.3 (Base 18.3)
Growing Degree Days18.6 (Base 10)
Averaged from 30 records on 18 June, 2014
WEATHER CONDITIONS BREAKOUT
WIND DIRECTION BREAKOUT
WEATHER BY HOUR - 18 JUNE, 2014
[ °F ]   °C
Local TimeTemperatureDewpointHumidityBarometerVisibilityWind DirectionWind SpeedGust SpeedPrecipitationEventsConditions
1:54 AM26.7 °C25.6 °C94 %1010.2 hPa16.1 kmCalmClear
2:54 AM26.7 °C25.6 °C94 %1010.2 hPa16.1 kmCalmClear
3:54 AM26.7 °C25 °C90 %1009.8 hPa16.1 kmCalmClear
4:54 AM26.1 °C25 °C94 %1010.2 hPa16.1 kmCalmClear
5:54 AM26.7 °C25.6 °C94 %1010.2 hPa16.1 kmENE (70°)5.6 km/hClear
6:54 AM28.3 °C26.1 °C88 %1010.5 hPa16.1 kmNNE (30°)5.6 km/hClear
7:54 AM29.4 °C26.1 °C82 %1010.8 hPa16.1 kmNNE (30°)5.6 km/hClear
8:27 AM29 °C26 °C84 %1011.9 hPa16.1 kmESE (110°)7.4 km/hMostly Cloudy
8:54 AM30 °C25.6 °C77 %1011.2 hPa16.1 kmEast (100°)9.3 km/hMostly Cloudy
9:54 AM30 °C25.6 °C77 %1011.2 hPa16.1 kmVariable9.3 km/h0 mmMostly Cloudy
10:01 AM31 °C24 °C66 %1011.5 hPa16.1 kmEast (80°)11.1 km/hOvercast
10:10 AM31 °C25 °C70 %1011.5 hPa16.1 kmVariable11.1 km/hMostly Cloudy
10:54 AM31.1 °C25 °C70 %1010.2 hPa16.1 kmEast (100°)13 km/hMostly Cloudy
11:54 AM30.6 °C25 °C72 %1009.5 hPa16.1 kmVariable9.3 km/hMostly Cloudy
12:01 PM31 °C26 °C75 %1010.2 hPa16.1 kmWNW (300°)5.6 km/hMostly Cloudy
12:54 PM31.1 °C25 °C70 %1009.1 hPa16.1 kmSSE (150°)11.1 km/hScattered Clouds
1:27 PM30 °C26 °C79 %1009.5 hPa16.1 kmWest (280°)7.4 km/hOvercast
1:54 PM30.6 °C24.4 °C69 %1008.1 hPa16.1 kmESE (110°)11.1 km/hMostly Cloudy
2:13 PM31 °C24 °C66 %1008.8 hPa16.1 kmEast (100°)11.1 km/hOvercast
2:54 PM30.6 °C24.4 °C69 %1007.8 hPa16.1 kmEast (90°)11.1 km/hOvercast
3:54 PM30.6 °C24.4 °C69 %1007.5 hPa16.1 kmEast (100°)11.1 km/hMostly Cloudy
4:13 PM31 °C24 °C66 %1008.1 hPa16.1 kmEast (100°)11.1 km/hMostly Cloudy
4:54 PM30 °C24.4 °C72 %1007.5 hPa16.1 kmEast (100°)9.3 km/hPartly Cloudy
5:54 PM29.4 °C24.4 °C74 %1007.8 hPa16.1 kmEast (100°)9.3 km/hPartly Cloudy
6:54 PM28.9 °C25 °C79 %1008.5 hPa16.1 kmEast (90°)9.3 km/hPartly Cloudy
7:54 PM28.9 °C25 °C79 %1009.1 hPa16.1 kmENE (60°)5.6 km/hClear
8:54 PM28 °C25 °C84 %1009.5 hPa16.1 kmNE (50°)9.3 km/hPartly Cloudy
9:54 PM29 °C25 °C79 %1009.8 hPa16.1 kmNE (50°)7.4 km/hPartly Cloudy
10:54 PM28 °C24 °C79 %1010.2 hPa16.1 kmENE (60°)7.4 km/hScattered Clouds
11:54 PM28.9 °C25 °C79 %1009.5 hPa16.1 kmENE (60°)9.3 km/hClear
Hourly data recorded from PGUM, located 0 kilometers away from Upi, Guam







STORIES FROM OUR PARTNERS